SRMSAT

Satellite information

Favourite Embed

Satellite Type and Status

PAYLOADIN ORBIT

Key statistics

Satellite SRMSAT at a glance.

Uptime

5077

Days in orbit

Revolutions

≈ 14.1

Per day

Orbit

LEO

Low Earth Orbit

Inclination

20.0

Latest

Satellite identification and parameters

Extended collection of information and parameters for SRMSAT.

Object identification

Identified? True

Debris? False

Object name: SRMSAT

International designator: 2011-058D

Object number (NORAD): 37841

Object ID (CCSDS): 37841

Country: INDIA (IND)

Current information (Y/N): Y

RCS size: MEDIUM

Orbital parameters

Period: 102.022 minutes

Inclination: 19.9734 deg

SMA: 7232.516 km

Apoapsis: 862.827 km

Periapsis: 845.934 km

RAAN: 351.5364 deg

Eccentricy: 0.00116787

Argument of periapsis: 296.3664 deg

Mean anomaly: 221.6789 deg

Mean motion: 14.11460357 rev/day

Mean motion (dot): 0.00000542 rev/day2

B* drag term: 0.00015052706 1/REarth

Two-line elements (TLE)

Creation date: Sept. 4, 2025, 10:13 a.m.

Reference frame: TEME

Reference center: EARTH

Epoch: Sept. 4, 2025, 12:09 a.m. UTC

TLE line 0: 0 SRMSAT

TLE line 1: 1 37841U 11058D 25247.00642532 .00000542 00000-0 15053-3 0 9998

TLE line 2: 2 37841 19.9734 351.5364 0011679 296.3664 221.6789 14.11460357717333

Live tracking on map

Real-time ground track for satellite SRMSAT.

In-orbit conjunctions

There are no conjunctions computed for SRMSAT, at the moment. Check back to stay up to date, as we update our databases every day.

Go to all conjunctions

Associated space launch

SRMSAT was lifted into orbit during the mission ‘PSLV-CA | Megha-Tropiques’, on board a PSLV space rocket.

The launch took place on Oct. 12, 2011, 5:31 a.m. from Satish Dhawan Space Centre First Launch Pad.

For more information about the launch, click the button.

Launch to space PSLV-CA | Megha-Tropiques
PSLV-CA | Megha-Tropiques

Agency: N/A

Status: Launch Successful

Launch date: Oct. 12, 2011, 5:31 a.m. UTC

Rocket: PSLV

Launch pad: Satish Dhawan Space Centre First Launch Pad

Location: Satish Dhawan Space Centre, India

...

Latest news about this satellite

There are no fresh news available about this satellite. Check back as we update our databases every day.


Newsletter sign-up

Weekly statistics, charts and insights to help you stay on top of the space industry.